Vertical_Velocity
2 -1 3 1 -8 -4 -0 -1 0 1 0 -1 1 0 -1 1 1 3 0 1 -2 2 -0 0 3 2 3 1 -0 1 -1 -1 -1 1 -0 -0 -0 -1 -2 -2 -2 5 2 -3 -1 -2 -2 -1 -1
2 2 2 -2 -7 -1 -1 -1 -0 -0 -0 1 1 -0 -2 3 1 2 2 0 -1 1 1 1 0 2 1 2 2 1 1 0 -0 -1 -0 0 -0 0 0 1 1 3 0 -2 -1 -1 -2 -1 -1
-0 2 -1 -4 -1 -2 -2 -0 -0 1 1 1 -1 -0 0 0 0 -0 1 -2 -2 -0 4 -4 3 1 0 2 1 2 2 2 -1 -0 1 0 -0 -1 -0 0 0 3 1 -0 -0 0 -1 -1 -1
-4 -2 -4 -4 -1 -0 -0 0 1 1 2 0 -0 -2 0 -0 0 1 1 1 1 1 7 4 2 4 4 0 -1 1 1 4 5 -1 -1 0 -0 0 0 0 -0 -1 1 0 -0 -1 -1 -1 -3
-2 -2 -2 -1 0 0 0 0 0 0 1 1 0 2 0 1 1 1 -0 -3 1 1 4 1 -0 -1 -0 1 1 0 0 -1 1 1 -0 -1 0 -1 -0 -0 0 0 -0 -0 -0 -0 -0 -1 1
-4 -2 -2 -0 0 0 0 0 0 -0 0 1 -1 -0 0 1 0 1 -1 -0 -4 -0 0 2 1 1 1 0 -1 1 1 3 5 1 2 1 2 0 0 0 0 -1 -0 0 1 -0 -1 0 -1
-6 -3 0 -0 0 1 0 1 -1 -0 0 0 0 -1 1 1 -0 1 -0 1 -0 -1 2 1 -0 -1 2 1 1 0 1 3 2 3 0 -1 0 2 2 2 2 0 1 0 0 2 1 1 1
-3 -6 -0 -0 -1 0 -0 0 -0 0 1 1 -0 -0 0 -1 -1 1 2 1 1 -0 -1 0 2 3 1 2 0 -1 -1 -1 -1 -0 -1 -0 -0 0 1 -1 -0 1 4 1 3 2 1 0 1
-1 -6 -0 -0 -0 0 0 -0 1 0 0 -0 -0 1 0 -1 -1 1 1 0 -1 -1 -1 -0 -1 -2 -1 1 1 1 1 1 1 2 3 2 0 0 -1 -1 0 -0 -0 -0 2 4 3 3 1
-6 -3 -1 -0 -0 -0 0 -0 0 0 0 -0 -0 1 -0 1 1 1 -1 -1 -2 -2 -1 -2 -1 -1 -1 -1 -0 -1 -1 -1 0 0 -1 5 4 2 2 1 0 -1 -0 0 0 3 2 3 1
1 -1 -0 1 0 0 -0 -1 -0 -0 0 0 -1 -1 -1 0 -1 -2 -1 -1 -1 1 0 -2 -2 -1 -1 -1 -1 -1 -0 -0 -1 -1 -1 -0 0 1 1 -0 0 0 1 -2 -0 1 3 -1 -0
-7 1 0 1 0 0 -0 -0 -0 -0 0 -0 -0 -0 0 -1 -1 -2 -2 0 -0 -1 -1 -0 -2 -1 -1 -1 -1 -0 -0 -0 -1 -1 0 -1 -0 -1 -1 -1 -0 2 1 1 1 -2 -1 -1 1
-3 1 -0 2 0 -1 0 -0 -0 -1 -0 -1 -2 -1 -0 -1 -1 -1 -1 -2 -1 -0 -0 -1 -0 -1 -1 -1 -1 -1 0 -0 -2 -2 -0 -2 -2 -3 -1 -3 -1 0 3 1 1 -1 1 1 2
1 -0 1 1 0 -1 -1 -0 1 -1 -1 -0 -0 -0 -0 0 0 -0 -0 -0 -1 -1 -1 -1 -0 -0 -0 1 -0 -2 -2 -1 -2 -0 1 1 -1 -2 0 -1 -2 -1 1 0 -1 1 -2 -2 1
-1 -3 -0 -2 -0 0 0 0 -1 -1 -1 0 0 0 -0 -1 -1 1 1 1 -0 -1 -1 -1 -0 1 -0 -0 -0 -1 0 -1 -2 -1 1 0 1 1 1 1 -0 1 3 3 -2 -3 2 1 0
-4 -5 -2 -1 -1 1 -3 -6 -0 -0 -0 -2 -1 1 -1 -1 -2 -1 -1 -2 -2 -2 -2 -1 -2 -1 -1 -1 0 -0 0 -1 -1 -2 -2 1 1 2 -0 -2 -3 -1 -1 1 3 0 -4 -2 3
-4 -1 -0 0 1 -1 -3 -3 -2 0 -0 -2 -2 -0 0 -2 -1 -1 -1 -2 -1 -3 -3 -2 -2 -1 -3 -2 -1 -1 -2 -2 -2 -2 -1 -3 -2 -2 -2 -2 -2 0 1 1 1 -2 2 -1 -1
-2 -0 0 -0 -2 -1 -1 -4 -4 -3 2 -3 -2 -1 -0 -0 -1 -0 -0 -2 -1 -0 -0 -2 -3 -2 -1 -1 -1 -0 -1 -1 -1 -1 -2 -1 -0 0 -0 1 -0 1 -0 1 4 4 0 1 0
-2 -1 -1 -1 0 1 -0 -1 -5 -2 0 -0 0 -1 -2 -1 2 1 1 1 1 3 2 2 -1 3 -0 -1 -3 -1 -3 -0 1 0 -0 0 -0 -1 1 2 4 1 -1 0 -3 -4 8 5 -0
-1 -1 -0 -2 -0 0 -1 -8 -4 0 -4 -1 -2 -2 -1 -2 -1 -1 0 -0 -3 -2 -3 -0 -0 -0 1 -1 -2 -3 -4 -1 -2 -1 -1 2 4 5 3 2 2 2 2 -1 -3 4 2 -1 2
0 -2 0 -0 -1 0 1 -5 -3 -1 -0 -1 -1 -1 -2 -2 -1 -1 -1 -2 -1 -1 -1 -2 -1 -2 0 1 1 1 -1 -1 -2 1 -1 1 0 -1 -1 -0 1 4 5 1 5 3 -3 3 -7
-1 -0 -0 -0 -3 -2 -1 -9 -3 -1 -2 0 -1 -2 -1 -1 -2 -1 -0 -1 -1 -1 -2 -2 -2 -2 -3 -3 -1 -1 -0 -3 2 -2 -1 0 1 0 -0 -0 3 4 0 1 1 2 6 5 -4
0 -1 -0 -0 -1 -2 -1 -2 -16 -0 -2 -2 -2 -2 -2 -2 -2 -1 -1 -1 -1 -1 -2 -2 -2 -2 -1 -2 -1 -1 -1 -4 -1 -5 -2 0 0 -3 -1 -1 -2 -2 0 2 4 1 -0 4 8
-0 -2 -2 -1 -1 -4 0 -2 -11 -2 -3 -1 -0 -1 -2 -1 -1 -1 0 -0 1 -0 -1 -2 -2 -3 -3 -3 -2 -1 -1 -2 -2 -4 -2 0 1 1 -0 -1 -2 -0 -2 -1 -2 5 0 0 1
-2 -3 -4 -8 -7 -5 -0 0 -19 -2 -2 -2 -1 -2 -1 -2 -3 -1 -0 0 -0 -0 -1 -2 -4 -1 -3 -1 -2 -1 1 1 -2 -2 1 -1 -0 1 -0 2 0 -2 0 -2 1 -5 -0 4 2
1 -4 -7 -4 -1 -3 -1 -5 -22 -2 -0 -1 -1 -2 -1 -1 -1 -1 -1 -2 -1 1 -2 -3 2 -1 -0 -1 -3 0 2 -0 1 1 -1 -1 0 1 -1 0 3 2 -1 1 0 -0 -1 3 2
0 -1 -3 -5 -1 2 -4 -10 -8 -1 -1 -1 -4 -0 -2 -2 -1 -3 -0 -1 -0 -1 -1 -0 0 -1 -3 -1 -2 -0 3 3 2 3 0 -3 1 -1 0 -1 0 -2 -1 -1 -1 0 2 2 3
-3 -4 -6 -3 -2 -1 -4 -2 -9 -3 -2 -1 -1 -3 -1 -1 -3 -1 -1 -0 -0 0 0 -0 -1 -3 -0 1 -1 -1 -1 -1 0 0 -1 -1 -1 1 2 -1 -2 0 -2 -3 -2 2 2 0 -0
2 0 -0 -3 -2 -2 -1 -11 -6 -2 -1 -1 -1 -1 -1 1 1 -0 -0 1 2 -0 0 -0 -1 -1 -0 -2 -3 1 1 1 0 1 1 0 -3 -3 0 3 3 3 4 1 3 -0 -1 -0 0
-1 -2 -2 -3 -2 -0 0 -22 -1 -1 -0 1 -2 -1 -1 -2 0 -0 -1 -1 1 1 1 -1 -1 -2 -3 -2 -2 -1 -1 -2 1 1 -2 -1 -2 0 -2 1 3 -2 -1 -2 1 2 5 1 2
Height
1511 1515 1519 1522 1531 1536 1541 1537 1536 1535 1535 1535 1535 1536 1537 1541 1541 1546 1546 1548 1550 1551 1551 1551 1552 1552 1553 1553 1554 1555 1555 1555 1556 1556 1556 1555 1555 1556 1556 1557 1558 1558 1558 1558 1558 1559 1559 1559 1559
1511 1515 1520 1520 1533 1537 1536 1535 1534 1534 1535 1536 1536 1537 1538 1543 1543 1545 1548 1548 1550 1551 1551 1552 1552 1553 1553 1554 1554 1555 1555 1555 1555 1556 1556 1556 1556 1556 1557 1557 1558 1558 1558 1558 1559 1559 1559 1559 1560
1512 1515 1518 1524 1538 1533 1533 1533 1533 1534 1534 1535 1537 1540 1541 1544 1545 1546 1547 1549 1551 1551 1551 1552 1552 1552 1553 1553 1554 1555 1555 1554 1555 1555 1556 1555 1556 1556 1557 1557 1557 1558 1558 1558 1558 1558 1558 1558 1559
1514 1517 1521 1526 1532 1532 1532 1532 1532 1533 1535 1536 1537 1541 1543 1545 1546 1546 1548 1549 1550 1550 1550 1551 1552 1551 1552 1553 1553 1554 1554 1555 1554 1555 1556 1556 1556 1556 1556 1557 1557 1557 1558 1558 1558 1557 1557 1557 1558
1513 1515 1526 1533 1533 1532 1532 1532 1533 1533 1535 1537 1538 1542 1544 1545 1546 1547 1548 1550 1550 1551 1551 1551 1552 1552 1552 1552 1553 1553 1554 1555 1555 1554 1555 1555 1555 1556 1556 1556 1556 1557 1557 1557 1557 1556 1556 1557 1557
1512 1516 1529 1534 1535 1533 1532 1532 1532 1534 1536 1537 1538 1541 1545 1546 1547 1548 1548 1550 1551 1551 1551 1551 1551 1552 1552 1551 1552 1552 1553 1553 1553 1554 1554 1554 1554 1554 1555 1555 1555 1556 1556 1556 1555 1555 1555 1556 1556
1511 1520 1532 1536 1536 1534 1533 1532 1532 1535 1536 1538 1539 1541 1545 1546 1547 1548 1548 1549 1549 1550 1550 1551 1551 1551 1550 1551 1550 1551 1551 1552 1552 1552 1553 1553 1553 1553 1554 1554 1554 1554 1554 1554 1554 1554 1554 1554 1555
1511 1517 1533 1536 1534 1535 1533 1533 1534 1536 1538 1539 1539 1541 1545 1545 1546 1547 1548 1548 1548 1549 1549 1549 1549 1549 1549 1549 1549 1549 1550 1550 1550 1550 1550 1550 1551 1551 1551 1552 1552 1552 1552 1552 1553 1553 1553 1553 1553
1511 1523 1533 1533 1533 1534 1534 1534 1536 1537 1538 1539 1540 1540 1542 1544 1546 1547 1547 1548 1547 1548 1547 1547 1547 1547 1547 1547 1547 1547 1547 1547 1548 1548 1548 1548 1548 1548 1548 1549 1549 1549 1549 1550 1550 1550 1551 1551 1551
1513 1525 1529 1532 1532 1533 1534 1535 1536 1538 1538 1540 1541 1541 1542 1544 1545 1546 1546 1546 1546 1546 1546 1545 1544 1544 1544 1544 1544 1544 1544 1544 1544 1544 1544 1544 1544 1544 1545 1545 1545 1545 1546 1546 1547 1547 1547 1548 1547
1518 1526 1529 1532 1532 1533 1534 1536 1537 1537 1538 1539 1540 1541 1542 1543 1543 1544 1544 1544 1543 1543 1542 1542 1541 1541 1540 1540 1540 1540 1540 1540 1540 1540 1540 1540 1540 1540 1541 1541 1541 1542 1542 1542 1543 1543 1543 1543 1543
1524 1529 1529 1532 1532 1533 1535 1537 1538 1537 1538 1538 1539 1540 1541 1542 1542 1542 1542 1541 1541 1541 1540 1539 1539 1538 1538 1537 1537 1537 1536 1536 1536 1536 1536 1536 1535 1535 1536 1536 1537 1537 1537 1537 1537 1538 1539 1538 1538
1524 1530 1531 1533 1533 1534 1535 1536 1537 1536 1537 1537 1538 1539 1540 1539 1539 1539 1539 1539 1539 1538 1537 1536 1536 1535 1534 1534 1533 1533 1532 1531 1531 1531 1531 1530 1530 1530 1530 1530 1531 1531 1532 1532 1531 1532 1532 1533 1533
1528 1530 1533 1534 1534 1535 1535 1536 1536 1536 1536 1536 1536 1537 1538 1538 1537 1537 1537 1536 1536 1535 1534 1533 1533 1531 1530 1529 1528 1527 1527 1526 1525 1524 1524 1523 1523 1523 1523 1523 1523 1524 1525 1526 1525 1525 1525 1526 1527
1529 1534 1534 1537 1536 1537 1536 1535 1536 1535 1535 1536 1536 1536 1535 1535 1535 1534 1534 1533 1533 1531 1531 1530 1529 1527 1526 1524 1523 1521 1520 1518 1517 1517 1516 1516 1515 1514 1514 1514 1515 1516 1517 1518 1518 1518 1519 1518 1519
1533 1538 1539 1540 1538 1538 1537 1536 1533 1533 1532 1533 1534 1534 1533 1533 1532 1532 1531 1530 1529 1528 1526 1525 1524 1522 1520 1518 1516 1514 1512 1510 1509 1508 1508 1507 1507 1507 1506 1505 1506 1508 1509 1510 1509 1511 1512 1512 1512
1543 1546 1541 1541 1541 1540 1539 1537 1532 1531 1531 1531 1531 1530 1530 1529 1528 1528 1527 1526 1526 1524 1522 1521 1519 1516 1513 1511 1508 1506 1504 1502 1501 1500 1499 1499 1498 1499 1498 1498 1498 1500 1500 1501 1502 1502 1503 1504 1504
1542 1545 1544 1542 1543 1541 1541 1537 1528 1528 1528 1525 1524 1524 1524 1524 1524 1524 1523 1523 1522 1520 1518 1515 1513 1509 1506 1503 1500 1498 1496 1495 1493 1491 1489 1488 1488 1489 1490 1489 1490 1492 1492 1493 1494 1495 1496 1496 1497
1540 1541 1543 1543 1544 1544 1540 1537 1525 1522 1521 1517 1516 1517 1516 1516 1519 1519 1520 1520 1519 1517 1514 1511 1507 1504 1500 1497 1495 1492 1490 1488 1487 1484 1481 1479 1478 1479 1481 1481 1482 1483 1484 1485 1487 1489 1490 1490 1491
1540 1543 1546 1546 1545 1546 1544 1530 1518 1515 1512 1511 1511 1510 1510 1511 1514 1516 1517 1516 1515 1512 1509 1506 1502 1499 1496 1494 1491 1487 1485 1483 1482 1479 1477 1474 1472 1472 1473 1475 1475 1476 1477 1478 1480 1481 1482 1484 1486
1547 1547 1549 1549 1548 1549 1548 1531 1516 1510 1510 1508 1508 1507 1508 1509 1511 1513 1513 1513 1511 1509 1506 1502 1498 1495 1493 1490 1487 1485 1482 1480 1478 1477 1475 1473 1471 1470 1470 1470 1470 1471 1472 1472 1473 1473 1474 1476 1479
1543 1549 1548 1549 1552 1551 1552 1542 1521 1509 1508 1506 1504 1505 1505 1506 1508 1510 1510 1510 1509 1507 1504 1500 1496 1492 1489 1486 1483 1481 1478 1476 1475 1473 1472 1471 1469 1468 1467 1466 1466 1467 1467 1467 1467 1468 1468 1468 1470
1547 1548 1550 1552 1556 1563 1554 1558 1517 1513 1503 1500 1500 1501 1502 1504 1505 1507 1507 1507 1507 1505 1502 1499 1495 1490 1486 1483 1481 1478 1476 1475 1473 1471 1469 1468 1466 1465 1464 1463 1463 1463 1462 1462 1462 1463 1463 1463 1463
1548 1550 1556 1559 1560 1564 1556 1558 1523 1511 1502 1498 1497 1497 1499 1501 1502 1504 1504 1504 1504 1502 1500 1497 1494 1490 1486 1482 1479 1477 1474 1472 1470 1468 1466 1465 1463 1462 1460 1459 1459 1458 1458 1458 1458 1458 1457 1457 1456
1549 1553 1568 1562 1572 1550 1559 1560 1516 1501 1499 1497 1497 1497 1497 1498 1499 1500 1501 1501 1500 1500 1498 1496 1493 1488 1484 1481 1477 1475 1473 1470 1467 1465 1463 1461 1460 1459 1458 1456 1455 1454 1454 1454 1454 1453 1452 1451 1450
1550 1552 1569 1560 1563 1566 1560 1548 1506 1495 1494 1494 1494 1494 1495 1495 1496 1497 1497 1498 1497 1496 1495 1493 1490 1486 1483 1481 1478 1474 1470 1468 1465 1462 1460 1458 1457 1455 1455 1454 1452 1451 1450 1450 1449 1448 1447 1446 1446
1551 1556 1558 1576 1581 1566 1554 1533 1501 1490 1490 1491 1491 1491 1491 1493 1493 1494 1495 1494 1494 1493 1491 1489 1487 1485 1482 1479 1477 1473 1469 1465 1462 1459 1457 1455 1454 1452 1451 1450 1449 1448 1448 1446 1445 1445 1444 1443 1442
1550 1554 1560 1567 1564 1555 1542 1543 1513 1496 1485 1486 1487 1486 1487 1490 1491 1491 1491 1490 1489 1488 1487 1486 1484 1482 1480 1477 1475 1472 1468 1465 1462 1458 1455 1454 1452 1450 1447 1445 1445 1445 1445 1443 1441 1440 1440 1439 1439
1551 1554 1557 1560 1561 1551 1549 1516 1498 1494 1487 1485 1486 1486 1487 1487 1488 1487 1487 1486 1485 1484 1483 1482 1481 1479 1478 1475 1473 1470 1467 1464 1461 1458 1454 1450 1449 1448 1446 1445 1444 1443 1443 1441 1439 1439 1438 1438 1437
1548 1550 1552 1551 1555 1550 1553 1520 1488 1488 1487 1487 1486 1485 1485 1485 1484 1483 1483 1481 1479 1478 1478 1478 1477 1476 1474 1472 1470 1467 1465 1463 1460 1457 1454 1451 1448 1446 1445 1444 1442 1442 1441 1441 1440 1439 1437 1436 1435